Showing default

LDPE-1, 49818

Orbit data source: Space-Track

LDPE-1, 49818 is a payload satellite owned by AFRL/RV (US) in GEO that was launched on Tue, 07 Dec 2021 UTC via an ATLAS V 551 launch vehicle from the Air Force Eastern Test Range (AFETR). Payloads include a variety of satellites, spacecraft, and rockets equipped with specific instruments for various scientific and technological missions. These include communications satellites like Starlink; space stations such as the ISS; scientific satellites like the Hubble; Earth observation satellites from companies like Planet Labs, Umbra, and HawkEye 360; GPS; miniature CubeSats for education and research; and military/defense satellites.

Loading next visibility...
LDPE-1 details
Identifier
49818, 2021-118B
Orbit
GEO
Last TLE update7 hours ago
Origin
Flag of USAFRL/RV (US)
ManufacturerNGIS
MissionOperational Defense Technology
Bus & MotorESPASTAR, Unknown motor
Mass~500 kg wet, 500 kg dry
Launch date (UTC)
2021-12-07 (3 years ago)
Launch vehicle
ATLAS V 551
Launch site
Air Force Eastern Test Range (AFETR)
Object type
Payload
Rocket body
Debris
Shape & HBRCyl + 1 Pan, 3.6 m
Radar Cross Section3.054 m², Large (>1 m²)

Expand to show TLE details & history

TLE from 7 hours ago
0 LDPE-1
1 49818U 21118B   24361.23380043 -.00000228  00000-0  00000-0 0  9995
2 49818   2.8510  85.4250 0000433 286.6024 118.2263  0.99509766 11242
Epoch: 2024-12-26T05:36Z
Definitive object data (Epoch: 2024-12-26T05:36:40.357Z)
Latitude2.02916°
Longitude-49.16637°
Altitude36,001.697 km
Speed3.067 km/s
True Right ascension08h 40m 52s
True Declination2° 01' 38"
Sunlit
Object was in daylight at TLE epoch
Visualization TLE readout
Latitude1.58964°
Longitude51.79853°
Altitude36,002.333 km
Speed3.067 km/s
Apparent Right ascension15h 47m 57s
Apparent Declination-4° 09' 53"
Sunlit
Object is in daylight
Visualization observer readout
Local Sidereal Time11:43:45
Azimuth112.724° SE
Elevation18.886°
Doppler factor1
Orbital elements
Apogee altitude36,004.475 km
Perigee altitude36,000.805 km
Semi-major axis42,380.777 km
Eccentricity0.0000433
Inclination2.851°
RAAN85.425°
Arg. of periapsis286.6024°
True anomaly118.23067°
Mean anomaly118.2263°
Eccentric anomaly118.22849°
Mean motion0.24877 °/min
BSTARUnknown
Orbital period1447.15 mins
Loading historical data...
49818 neighbors
Authenticating...
Loading maneuver chart data...
Loading historical data...
Loading historical data...
Loading historical data...
Loading historical data...
Loading historical data...
Loading historical data...
Loading historical data...
Other satellites on launch #118 in the year 2021 (2021-12-07 UTC)

LDPE-1 Visibility forecast

Observer location: undefined°, undefined

Span
Click to sort rows by Start time (UTC) header in descending order
Start Az.
Max El. time (UTC)
Max El. Az.
Max El.
End time (UTC)
End Az.
1440 mins2024-12-26 12:22:15.800Z112.738° SE2024-12-27 09:15:15.800Z113.68° SE20.21°2024-12-27 12:22:15.800Z114.894° SE
|